Visibility
15.0 15.0 15.0 15.0 15.0 15.0 15.0 15.0 15.0 15.0 15.0 15.0 15.0 15.0 15.0 15.0 15.0 15.0 15.0 15.0 15.0 15.0 15.0 15.0 2.3 4.0 3.9 15.0 15.0 15.0 15.0 15.0 15.0 15.0 15.0 15.0 15.0 15.0 15.0 15.0 15.0 15.0 15.0 15.0
15.0 15.0 15.0 15.0 15.0 15.0 15.0 15.0 15.0 15.0 15.0 15.0 15.0 15.0 15.0 15.0 15.0 15.0 15.0 15.0 15.0 15.0 15.0 14.1 1.8 2.4 3.5 15.0 15.0 15.0 15.0 15.0 15.0 15.0 15.0 15.0 15.0 15.0 15.0 15.0 15.0 15.0 15.0 15.0
15.0 15.0 15.0 15.0 15.0 15.0 15.0 15.0 15.0 15.0 15.0 15.0 15.0 15.0 15.0 15.0 15.0 15.0 15.0 15.0 15.0 15.0 15.0 15.0 2.0 3.0 1.3 8.0 15.0 15.0 15.0 15.0 15.0 15.0 15.0 15.0 15.0 15.0 15.0 15.0 15.0 15.0 15.0 15.0
15.0 15.0 15.0 15.0 15.0 15.0 15.0 15.0 15.0 15.0 15.0 15.0 15.0 15.0 15.0 15.0 15.0 15.0 15.0 15.0 15.0 15.0 15.0 10.5 4.4 5.2 13.6 9.9 12.7 15.0 13.1 15.0 15.0 15.0 15.0 15.0 15.0 15.0 15.0 15.0 15.0 15.0 15.0 15.0
15.0 15.0 15.0 15.0 15.0 15.0 15.0 15.0 15.0 15.0 15.0 15.0 15.0 15.0 15.0 15.0 15.0 15.0 15.0 15.0 15.0 15.0 15.0 15.0 1.1 2.5 3.5 8.8 15.0 14.2 15.0 15.0 15.0 15.0 15.0 15.0 15.0 15.0 15.0 15.0 15.0 15.0 15.0 15.0
15.0 15.0 15.0 15.0 15.0 15.0 15.0 15.0 15.0 15.0 15.0 15.0 15.0 15.0 15.0 15.0 15.0 15.0 15.0 15.0 15.0 15.0 15.0 15.0 9.4 1.5 3.9 13.2 6.5 3.3 15.0 15.0 15.0 15.0 15.0 15.0 15.0 15.0 15.0 15.0 15.0 15.0 15.0 15.0
15.0 15.0 15.0 15.0 14.3 14.2 12.8 3.1 1.6 9.8 15.0 15.0 15.0 15.0 15.0 15.0 15.0 15.0 15.0 15.0 15.0 15.0 15.0 15.0 15.0 11.4 2.0 6.3 15.0 15.0 6.3 15.0 15.0 15.0 15.0 15.0 15.0 15.0 15.0 15.0 15.0 15.0 15.0 15.0
0.1 1.1 15.0 15.0 14.5 13.8 15.0 6.2 9.5 14.5 15.0 15.0 15.0 15.0 15.0 15.0 15.0 15.0 15.0 15.0 15.0 15.0 15.0 15.0 15.0 7.8 2.1 2.3 15.0 13.9 11.7 15.0 15.0 15.0 15.0 15.0 15.0 15.0 15.0 15.0 15.0 15.0 15.0 15.0
0.1 14.1 15.0 15.0 15.0 15.0 12.9 9.1 15.0 15.0 15.0 15.0 15.0 15.0 15.0 15.0 15.0 15.0 15.0 15.0 15.0 15.0 15.0 15.0 15.0 15.0 1.5 4.2 2.2 4.1 3.9 15.0 15.0 15.0 10.5 15.0 15.0 15.0 15.0 15.0 15.0 15.0 15.0 15.0
0.7 0.6 15.0 15.0 15.0 15.0 9.1 10.5 15.0 15.0 15.0 15.0 15.0 15.0 15.0 15.0 15.0 15.0 15.0 15.0 15.0 15.0 15.0 12.5 15.0 15.0 15.0 1.5 4.0 1.9 11.0 15.0 15.0 14.1 15.0 15.0 15.0 15.0 15.0 15.0 15.0 15.0 15.0 15.0
15.0 11.1 15.0 15.0 15.0 15.0 14.6 13.1 15.0 15.0 15.0 10.8 15.0 15.0 10.8 15.0 15.0 15.0 15.0 15.0 15.0 15.0 15.0 15.0 15.0 15.0 12.3 1.4 4.8 2.6 15.0 15.0 15.0 15.0 15.0 15.0 15.0 15.0 15.0 15.0 15.0 15.0 15.0 15.0
15.0 15.0 14.1 15.0 15.0 15.0 15.0 15.0 15.0 15.0 11.0 15.0 14.9 14.4 15.0 15.0 15.0 15.0 15.0 15.0 15.0 15.0 15.0 15.0 15.0 15.0 11.9 0.7 3.2 3.7 6.8 15.0 15.0 15.0 3.3 15.0 15.0 15.0 15.0 15.0 15.0 15.0 15.0 15.0
15.0 4.8 0.7 11.1 5.9 8.0 5.7 15.0 15.0 15.0 15.0 12.6 2.2 12.9 3.9 15.0 13.5 15.0 15.0 15.0 15.0 15.0 15.0 15.0 15.0 15.0 6.8 8.1 12.9 7.2 15.0 15.0 15.0 13.1 15.0 15.0 15.0 15.0 15.0 15.0 15.0 15.0 15.0 15.0
15.0 10.7 0.2 0.1 0.1 0.1 0.9 8.3 6.3 15.0 8.2 15.0 2.5 0.8 15.0 11.7 6.2 15.0 15.0 15.0 15.0 15.0 15.0 15.0 15.0 15.0 14.1 1.5 9.1 2.3 8.9 15.0 15.0 9.3 15.0 10.6 15.0 15.0 15.0 15.0 15.0 15.0 15.0 15.0
15.0 8.2 3.4 12.0 2.0 15.0 9.3 2.0 15.0 1.6 0.3 0.1 0.0 0.0 1.3 14.6 13.0 15.0 15.0 15.0 2.4 5.6 15.0 15.0 15.0 15.0 13.3 10.0 9.9 11.7 3.1 9.0 14.5 13.2 15.0 7.9 15.0 15.0 15.0 15.0 15.0 15.0 15.0 15.0
15.0 1.3 0.2 0.1 2.6 14.8 5.6 1.3 0.7 14.8 3.4 10.3 0.0 0.0 1.2 15.0 15.0 15.0 9.1 8.8 6.5 5.6 4.5 2.9 15.0 15.0 15.0 15.0 14.9 15.0 10.7 15.0 15.0 15.0 15.0 14.9 13.9 15.0 15.0 15.0 15.0 15.0 15.0 15.0
0.5 0.1 0.2 0.1 0.7 15.0 5.3 0.0 0.1 0.2 0.1 0.0 0.1 0.0 6.4 15.0 15.0 11.4 14.7 14.2 8.8 5.6 7.0 5.2 2.6 12.0 6.3 15.0 15.0 15.0 15.0 15.0 15.0 11.5 14.9 15.0 15.0 8.1 15.0 15.0 15.0 15.0 15.0 15.0
0.1 0.4 0.1 0.1 7.5 0.4 0.1 2.3 0.4 0.1 0.1 0.0 0.0 0.0 1.1 15.0 15.0 15.0 15.0 12.4 11.7 8.1 5.3 7.0 3.3 3.8 3.3 10.0 15.0 15.0 15.0 15.0 15.0 3.7 15.0 12.3 15.0 15.0 15.0 15.0 15.0 15.0 15.0 15.0
0.0 0.7 0.6 0.3 1.3 0.1 3.5 0.4 0.1 0.0 0.1 0.0 0.0 0.0 2.8 15.0 15.0 15.0 14.0 3.8 15.0 15.0 9.1 15.0 9.6 15.0 15.0 15.0 13.4 12.8 15.0 15.0 3.6 4.6 15.0 15.0 15.0 15.0 6.3 15.0 13.7 15.0 14.7 15.0
15.0 9.3 15.0 15.0 1.6 0.1 0.1 0.1 15.0 0.0 14.1 0.0 0.0 0.0 0.0 10.7 0.0 0.0 15.0 15.0 15.0 12.4 12.0 9.6 15.0 15.0 5.6 10.1 4.0 4.6 6.3 3.0 5.0 5.0 15.0 15.0 5.2 7.3 15.0 15.0 15.0 15.0 15.0 15.0
15.0 15.0 15.0 15.0 4.7 0.3 0.1 2.2 15.0 6.3 0.1 0.0 0.0 0.0 0.1 0.0 0.0 0.4 15.0 15.0 15.0 15.0 15.0 15.0 7.8 3.5 1.5 4.4 3.9 15.0 5.6 2.9 15.0 7.1 4.0 9.8 11.6 15.0 11.9 8.2 14.6 15.0 15.0 13.6
0.5 15.0 0.8 15.0 13.8 0.8 0.1 5.1 3.4 0.0 0.0 0.0 0.0 0.0 0.0 0.0 1.9 15.0 15.0 9.8 9.4 14.9 15.0 9.7 15.0 7.0 1.5 1.7 1.5 1.6 9.6 15.0 11.0 6.0 15.0 6.4 12.1 5.8 6.7 11.5 8.3 15.0 11.4 9.2
0.1 1.0 0.1 0.1 0.1 0.0 0.0 0.0 0.0 0.0 0.0 0.0 0.0 0.0 0.0 0.0 0.0 12.3 15.0 15.0 11.8 9.2 8.9 6.1 3.5 6.4 10.3 5.4 10.1 1.1 1.5 4.0 5.5 7.3 13.8 15.0 9.0 8.9 10.0 15.0 14.6 15.0 15.0 11.9
15.0 15.0 3.3 0.1 0.1 0.0 0.0 0.0 0.0 0.0 0.0 1.7 14.4 15.0 15.0 15.0 15.0 2.3 15.0 14.9 13.4 6.1 3.4 5.1 3.3 3.8 6.2 4.8 2.6 4.5 5.9 4.8 1.5 6.0 6.8 4.4 4.3 12.5 12.7 15.0 14.4 14.7 7.3 15.0
11.1 15.0 7.8 5.3 3.7 4.5 6.6 6.5 6.5 15.0 15.0 15.0 15.0 15.0 15.0 15.0 15.0 15.0 15.0 9.6 14.4 15.0 15.0 15.0 15.0 11.3 8.7 9.4 6.2 7.1 15.0 5.5 9.9 3.5 5.6 7.8 12.9 12.1 12.1 15.0 14.7 15.0 11.8 11.5
15.0 15.0 9.8 0.3 13.6 10.6 0.2 15.0 15.0 15.0 15.0 15.0 15.0 15.0 15.0 15.0 15.0 15.0 15.0 15.0 14.5 12.7 15.0 15.0 15.0 15.0 15.0 15.0 14.3 10.5 11.8 4.5 4.3 14.1 6.6 2.6 11.4 12.4 3.5 14.6 15.0 1.9 15.0 15.0